Torna al catalogo

DELTA 1 DEB

AttivoSSO
NORAD 12262·DEBRIS·🇺🇸 United States

Lanciato Mar 5, 1978 da Vandenberg Space Force Base

Loading…

Prossimi Passaggi (prossime 24 ore)

TLE

AggiornatoSource: Space-Track

Epoca: Sep 13, 2026, 23:01 UTC

1 12262U 78026DF  26256.95958647  .00001767  00000-0  79790-3 0  9996
2 12262  99.0259  46.7656 0091965 311.4306 171.5637 14.21251084317055

Traccia DELTA 1 DEB in tempo reale con AllMySat

Download on the App Store